Gunnison, CO

3:26 PM MST on December 07, 2019 (GMT -0700)
Gunnison County

Weather History for KGUC - July, 2019

Change the Weather History Date:

Tuesday, July 16, 2019

  Actual Average Record
Temperature  
Mean Temperature 65 °F -  
Max Temperature 84 °F 77 °F 87 °F (2006)
Min Temperature 46 °F 44 °F 39 °F (2016)
Growing Degree Days 15 (Base 50)    
Moisture  
Dew Point 45 °F    
Average Humidity 50    
Maximum Humidity 93    
Minimum Humidity 21    
Precipitation  
Precipitation 0.00 in - - ()
Sea Level Pressure  
Sea Level Pressure 30.01 in    
Wind  
Wind Speed 5 mph (NE)    
Max Wind Speed 15 mph    
Max Gust Speed 21 mph    
Visibility 10 miles    
Events Rain    
Averages and records for this station are not official NWS values.
T = Trace of Precipitation, MM = Missing Value Source: NWS Daily Summary

Daily Weather History Graph

Daily Weather History Graph

Search for Another Location

Airport or City:

Astronomy

Jul. 16, 2019 Rise Set
Actual Time 5:56 AM MDT 8:30 PM MDT
Civil Twilight 5:25 AM MDT 9:01 PM MDT
Nautical Twilight 4:47 AM MDT 9:39 PM MDT
Astronomical Twilight 4:04 AM MDT 10:22 PM MDT
Moon 8:39 PM MDT (7/16) 5:37 AM MDT (7/16)
Length of Visible Light 15h 36m
Length of Day
14h 34m
Full, 100% of the Moon is Illuminated
Jul 16
Full
Jul 16
Full
Jul 24
Last Quarter
Jul 31
New
Aug 7
First Quarter

Hourly Weather History & Observations

Time (MDT) Temp. Dew Point Humidity Pressure Visibility Wind Dir Wind Speed Gust Speed Precip Events Conditions
1:56 AM 53.1 °F 44.1 °F 71% 30.04 in 10.0 mi NE 4.6 mph - N/A   Clear
2:56 AM 51.1 °F 43.0 °F 74% 30.03 in 10.0 mi East 3.5 mph - N/A   Clear
3:56 AM 46.9 °F 45.0 °F 93% 30.04 in 10.0 mi East 6.9 mph - N/A   Partly Cloudy
4:56 AM 48.0 °F 43.0 °F 83% 30.07 in 10.0 mi Variable 3.5 mph - N/A   Clear
5:56 AM 46.9 °F 44.1 °F 90% 30.13 in 10.0 mi Calm Calm - N/A   Clear
6:56 AM 48.9 °F 44.1 °F 83% 30.12 in 10.0 mi NE 3.5 mph - N/A   Clear
7:56 AM 53.1 °F 45.0 °F 74% 30.14 in 10.0 mi Calm Calm - N/A   Clear
8:56 AM 57.9 °F 46.0 °F 65% 30.11 in 10.0 mi Calm Calm - N/A   Partly Cloudy
9:56 AM 64.9 °F 46.9 °F 52% 30.09 in 10.0 mi Variable 4.6 mph - N/A   Clear
10:56 AM 72.0 °F 46.9 °F 41% 30.05 in 10.0 mi Calm Calm - N/A   Clear
11:56 AM 75.9 °F 46.0 °F 35% 30.03 in 10.0 mi Calm Calm - N/A   Partly Cloudy
12:56 PM 81.0 °F 43.0 °F 26% 29.99 in 10.0 mi WSW 4.6 mph - N/A   Clear
1:56 PM 84.0 °F 42.1 °F 23% 29.95 in 10.0 mi West 15.0 mph 20.7 mph N/A   Partly Cloudy
2:56 PM 84.0 °F 42.1 °F 23% 29.93 in 10.0 mi SW 9.2 mph - N/A   Scattered Clouds
3:56 PM 84.9 °F 41.0 °F 21% 29.94 in 10.0 mi West 10.4 mph - N/A   Partly Cloudy
4:56 PM 84.0 °F 43.0 °F 24% 29.91 in 10.0 mi Variable 6.9 mph - N/A   Clear
5:56 PM 81.0 °F 44.1 °F 27% 29.93 in 10.0 mi West 9.2 mph - N/A   Partly Cloudy
6:56 PM 79.0 °F 46.9 °F 32% 29.92 in 10.0 mi East 12.7 mph - N/A   Clear
7:56 PM 75.0 °F 45.0 °F 34% 29.93 in 10.0 mi East 11.5 mph - N/A   Scattered Clouds
8:56 PM 73.9 °F 46.0 °F 37% 29.92 in 10.0 mi ENE 10.4 mph - N/A   Mostly Cloudy
9:56 PM 66.0 °F 48.0 °F 52% 29.95 in 10.0 mi NE 4.6 mph - N/A   Clear
10:56 PM 66.0 °F 45.0 °F 47% 29.96 in 10.0 mi NW 4.6 mph - N/A   Scattered Clouds
11:56 PM 66.9 °F 48.0 °F 51% 29.94 in 10.0 mi East 12.7 mph - 0.00 in Rain Light Rain